Tiempo atmosférico en la estación meteorológica de Monforte De Lemos, Lugo (291 m.)



Fecha
DESCASC
Temp. máxima en grados centígrados (hora)
DESCASC
Temp. mínima en grados centígrados (hora)
DESCASC
Temp. media en grados centígrados
DESCASC
Racha de viento máxima en m/sg (hora)
DESCASC
Velocidad máxima media en intervalos de 10 minutos(hora)
DESCASC
Precipitaciones diarias en mm
DESCASC
Precipitaciones de 00:00 a 06:00 en mm
DESCASC
Precipitaciones de 06:00 a 12:00 en mm
DESCASC
Precipitaciones de 12:00 a 18:00 en mm
DESCASC
Precipitaciones de 18:00 a 24:00 en mm
DESCASC
24-01-2021 11.4 (14:30) 4.3 (06:00) 7.8 8.33 (00:10) 3.61 (17:10) 1 0.2 0.2 0.2 0.4
23-01-2021 14.1 (17:00) 7.5 (00:20) 10.8 9.17 (17:00) 3.61 (20:50) 6.6 0.6 0.6 3.8 1.6
22-01-2021 11.9 (14:30) 6.5 (09:10) 9.2 14.44 (03:20) 4.17 (00:50) 16.6 12.2 3.2 0.4 0.8
21-01-2021 16.3 (14:20) 9.6 (00:00) 12.9 13.61 (16:10) 5.56 (15:40) 8.8 0.2 5.6 0 3
20-01-2021 12 (14:40) 9.6 (00:00) 10.8 12.5 (06:10) 5 (09:10) 8.6 0 2.2 4.2 2.2
19-01-2021 11.9 (16:10) -2.6 (-00:0) 4.6 8.61 (17:30) 3.89 (17:30) 0 0 0 0 0
18-01-2021 11.6 (16:50) -1.6 (-00:0) 5 2.22 (15:20) 1.11 (15:20) 0 0 0 0 0
17-01-2021 13 (16:50) -3.9 (-00:0) 4.5 2.22 (13:50) 0.83 (15:30) 0 0 0 0 0
16-01-2021 10.2 (16:40) -2.1 (-00:0) 4 2.5 (14:30) 1.11 (05:50) 0 0 0 0 0
15-01-2021 4.9 (16:40) 3 (00:00) 4 3.89 (09:50) 1.11 (09:50) 0.2 0.2 0 0 0
14-01-2021 6.1 (16:50) -5.8 (04:00) 0.1 1.67 (14:10) 0.83 (20:30) 0 0 0 0 0
13-01-2021 11.1 (16:50) -7.1 (-00:0) 2 1.67 (15:50) 0.83 (16:40) 0 0 0 0 0
12-01-2021 11.8 (16:50) -6.9 (-00:0) 2.5 1.67 (12:40) 0.83 (13:40) 0 0 0 0 0
11-01-2021 12.8 (16:20) -5.3 (-00:0) 3.8 2.5 (15:50) 0.83 (14:40) 0 0 0 0 0
10-01-2021 -- (--) -- (--) -- -- (--) -- (--) -- 0 0 0 --
09-01-2021 5.8 (15:00) -7.5 (-00:0) -0.8 11.67 (15:40) 5.83 (15:40) 0 0 0 0 0
08-01-2021 8.8 (15:40) -1.2 (-00:0) 3.8 6.94 (16:30) 3.06 (17:30) 0 0 0 0 0
07-01-2021 7 (16:00) -0.5 (-00:0) 3.3 2.78 (18:50) 1.67 (23:30) 0 0 0 0 0
06-01-2021 3.9 (16:50) 0.8 (00:00) 2.4 2.78 (17:40) 1.39 (17:40) 0 0 0 0 0
05-01-2021 2.4 (17:40) -2.6 (-00:0) -0.1 1.94 (14:50) 0.83 (14:50) 0 0 0 0 0
04-01-2021 7.2 (16:40) -2.2 (-00:0) 2.5 2.22 (17:30) 1.11 (11:40) 0.4 0.4 0 0 0
03-01-2021 7.6 (13:50) 0.5 (00:00) 4 5.56 (15:00) 2.78 (15:10) 1.4 0 0.2 1.2 0
02-01-2021 6.9 (14:50) 1 (00:00) 4 2.5 (12:20) 1.11 (09:30) 0 0 0 0 0
01-01-2021 6.1 (15:10) 0.8 (00:00) 3.4 5.28 (13:00) 2.78 (12:50) 5 0.2 0.8 2.8 1.2
31-12-2020 9.4 (15:20) 3.2 (00:00) 6.3 8.61 (16:20) 4.17 (16:20) 5.6 0.4 2.2 1.8 1.2
30-12-2020 8.3 (15:40) 0.7 (00:00) 4.5 5.83 (16:00) 2.5 (15:30) 0.8 0.2 0.6 0 0
29-12-2020 8.1 (15:00) 1.8 (00:00) 5 5.56 (15:20) 2.78 (15:40) 4.6 3.2 0.2 0.6 0.6
28-12-2020 9.4 (16:30) 2.8 (00:00) 6.1 16.94 (02:10) 5.56 (02:10) 3.6 2 0.2 0.2 1.2
27-12-2020 10.5 (21:50) -2.2 (-00:0) 4.1 12.78 (15:30) 6.11 (17:40) 2 0 0 0 2
26-12-2020 3.9 (16:50) -3.6 (-00:0) 0.2 2.5 (14:30) 1.11 (14:00) 0 0 0 0 0

Gráficas

Temp. máximas Temp. mínimas Temp. medias Precipitaciones Rachas de viento máximas Velocidades máximas media en intervalos de 10 minutos

Datos horarios

Fecha y hora oficial Temperatura (ºC) Velocidad del viento (km/h) Dirección del viento Racha (km/h) Dirección de racha Precipitación (mm) Presión (hPa) Tendencia (hPa) Humedad (%)
2021-01-24 23:00:00 9 0 Calma 5 Oeste 0 -- -- 93
2021-01-24 22:00:00 9.4 2 Oeste 5 Sudoeste 0 -- -- 90
2021-01-24 21:00:00 10 0 Calma 13 Sudoeste 0.2 -- -- 86
2021-01-24 20:00:00 10.4 7 Sudoeste 15 Sudoeste 0 -- -- 81
2021-01-24 19:00:00 10.5 5 Sudoeste 17 Sudoeste 0 -- -- 81
2021-01-24 18:00:00 10.6 4 Sudoeste 25 Sudoeste 0 -- -- 83
2021-01-24 17:00:00 11.2 9 Sudoeste 20 Sudoeste 0.2 -- -- 79
2021-01-24 16:00:00 10.6 3 Oeste 25 Sudoeste 0 -- -- 88
2021-01-24 15:00:00 11.4 9 Sudoeste 22 Sudoeste 0 -- -- 80
2021-01-24 14:00:00 10.7 4 Oeste 19 Sudoeste 0 -- -- 90
2021-01-24 13:00:00 9.9 6 Sudoeste 23 Sudoeste 0 -- -- 91
2021-01-24 12:00:00 10.2 9 Sudoeste 18 Sudoeste 0 -- -- 82
2021-01-24 11:00:00 8.2 2 Sudoeste 6 Sudoeste 0 -- -- 95
2021-01-24 10:00:00 5.1 0 Calma 4 Oeste 0 -- -- 98
2021-01-24 09:00:00 4.6 0 Calma 4 Oeste 0 -- -- 96
2021-01-24 08:00:00 4.9 0 Calma 6 Sudoeste 0.2 -- -- 96
2021-01-24 07:00:00 5.3 2 Sudoeste 10 Oeste 0 -- -- 97
2021-01-24 06:00:00 4.3 0 Calma 5 Sudoeste 0 -- -- 93
2021-01-24 05:00:00 5.9 0 Calma 4 Sudoeste 0 -- -- 90
2021-01-24 04:00:00 7.3 0 Calma 9 Sudoeste 0 -- -- 91
2021-01-24 03:00:00 8.3 0 Calma 4 Sudoeste 0 -- -- 92
2021-01-24 02:00:00 9.3 0 Calma 22 Sudoeste 0.2 -- -- 92
2021-01-24 01:00:00 9.6 10 Sudoeste 30 Sudoeste 0 -- -- 89
2021-01-24 00:00:00 9.5 11 Sudoeste 25 Sudoeste 0.2 -- -- 90
2021-01-23 23:00:00 10 12 Sudoeste 31 Sudoeste 0.2 -- -- 88
2021-01-23 22:00:00 10.1 9 Sudoeste 28 Sudoeste 1 -- -- 91
2021-01-23 21:00:00 10.7 13 Sudoeste 27 Sudoeste 0 -- -- 85
2021-01-23 20:00:00 11 13 Sudoeste 26 Sudoeste 0 -- -- 83
2021-01-23 19:00:00 11.3 8 Oeste 23 Sudoeste 0.2 -- -- 81
2021-01-23 18:00:00 13.1 6 Oeste 30 Sudoeste 1 -- -- 79
2021-01-23 17:00:00 14.1 10 Oeste 33 Sudoeste 0.4 -- -- 92
2021-01-23 16:00:00 13.4 6 Sudoeste 18 Sudoeste 0.4 -- -- 96
2021-01-23 15:00:00 11.8 3 Sudoeste 18 Oeste 0.6 -- -- 97
2021-01-23 14:00:00 10.9 2 Oeste 13 Oeste 1 -- -- 94
2021-01-23 13:00:00 10.5 3 Sudoeste 18 Sudoeste 0.4 -- -- 94
2021-01-23 12:00:00 9.9 0 Calma 16 Sur 0.2 -- -- 92
2021-01-23 11:00:00 9.5 8 Sudoeste 28 Sudoeste 0 -- -- 89
2021-01-23 10:00:00 8.4 0 Calma 10 Sudoeste 0 -- -- 90
2021-01-23 09:00:00 8.6 6 Sudoeste 19 Sudoeste 0.2 -- -- 84
2021-01-23 08:00:00 8.6 8 Sudoeste 26 Sudoeste 0 -- -- 89
2021-01-23 07:00:00 8.6 8 Sudoeste 26 Sudoeste 0.2 -- -- 88
2021-01-23 06:00:00 8.1 7 Sudoeste 15 Sudoeste 0 -- -- 91
2021-01-23 05:00:00 7.6 0 Calma 9 Sur 0.2 -- -- 94
2021-01-23 04:00:00 7.7 4 Sudoeste 10 Sudoeste 0.2 -- -- 94
2021-01-23 03:00:00 7.7 2 Sur 10 Sur 0 -- -- 91
2021-01-23 02:00:00 7.7 3 Sudoeste 14 Sudoeste 0 -- -- 90
2021-01-23 01:00:00 7.7 3 Sudoeste 9 Sur 0.2 -- -- 90
2021-01-23 00:00:00 7.6 3 Sudoeste 11 Sur 0 -- -- 90
2021-01-22 23:00:00 7.5 4 Sur 15 Sur 0.2 -- -- 89
2021-01-22 22:00:00 7.8 5 Sudoeste 16 Sur 0 -- -- 87
2021-01-22 21:00:00 7.9 6 Sudoeste 13 Sur 0.2 -- -- 87
2021-01-22 20:00:00 7.9 5 Sudoeste 12 Sudoeste 0.2 -- -- 90
2021-01-22 19:00:00 8.2 4 Sudoeste 13 Sudoeste 0.2 -- -- 89
2021-01-22 18:00:00 8.6 7 Sudoeste 26 Sudoeste 0.2 -- -- 87
2021-01-22 17:00:00 10 10 Sudoeste 26 Oeste 0 -- -- 76
2021-01-22 16:00:00 11.1 11 Sudoeste 30 Sudoeste 0.2 -- -- 71
2021-01-22 15:00:00 10.2 8 Sudoeste 24 Sur 0 -- -- 76
2021-01-22 14:00:00 10.6 5 Oeste 19 Sudoeste 0 -- -- 76
2021-01-22 13:00:00 9.1 2 Norte 6 Noroeste 0 -- -- 87
2021-01-22 12:00:00 9.2 0 Calma 6 Noroeste 0.2 -- -- 83
2021-01-22 11:00:00 7.1 4 Norte 10 Norte 0.2 -- -- 96
2021-01-22 10:00:00 6.6 0 Calma 6 Noroeste 0.2 -- -- 96
2021-01-22 09:00:00 6.7 2 Norte 8 Sur 0.2 -- -- 95
2021-01-22 08:00:00 6.8 2 Sur 13 Sur 0.4 -- -- 95
2021-01-22 07:00:00 6.9 5 Sudoeste 12 Noroeste 2 -- -- 95
2021-01-22 06:00:00 7 0 Calma 30 Sudoeste 1.4 -- -- 93
2021-01-22 05:00:00 7.5 10 Sudoeste 32 Sudoeste 1.4 -- -- 91
2021-01-22 04:00:00 8 10 Oeste 52 Oeste 0.8 -- -- 82
2021-01-22 03:00:00 8.7 4 Oeste 34 Sudoeste 1.2 -- -- 87
2021-01-22 02:00:00 7.8 0 Calma 8 Noroeste 0.6 -- -- 93
2021-01-22 01:00:00 8.7 7 Noroeste 42 Noroeste 6.8 -- -- 89
2021-01-22 00:00:00 9.6 3 Sur 18 Sudoeste 2.8 -- -- 90
2021-01-21 23:00:00 10.7 11 Sudoeste 29 Sudoeste 0.2 -- -- 82
2021-01-21 22:00:00 11.7 8 Sudoeste 28 Sudoeste 0 -- -- 70
2021-01-21 21:00:00 11.9 12 Sudoeste 39 Sudoeste 0 -- -- 72
2021-01-21 20:00:00 12 18 Sudoeste 38 Oeste 0 -- -- 73
2021-01-21 19:00:00 12 14 Sudoeste 38 Oeste 0 -- -- 76
2021-01-21 18:00:00 12.3 11 Sudoeste 26 Sur 0 -- -- 75
2021-01-21 17:00:00 12.7 12 Oeste 49 Sudoeste 0 -- -- 74
2021-01-21 16:00:00 14.5 14 Oeste 44 Sudoeste 0 -- -- 66
2021-01-21 15:00:00 14.8 13 Sudoeste 48 Sudoeste 0 -- -- 70
2021-01-21 14:00:00 15.7 18 Sudoeste 44 Sudoeste 0 -- -- 70
2021-01-21 13:00:00 14.8 18 Sudoeste 44 Sudoeste 0 -- -- 78
2021-01-21 12:00:00 11.5 8 Sudoeste 19 Sudoeste 0 -- -- 90
2021-01-21 11:00:00 10.3 6 Sudoeste 26 Sudoeste 2.6 -- -- 93
2021-01-21 10:00:00 10.4 15 Sudoeste 39 Sudoeste 2.8 -- -- 89
2021-01-21 09:00:00 11.1 10 Sudoeste 29 Sudoeste 0.2 -- -- 85
2021-01-21 08:00:00 11.1 9 Sur 26 Sur 0 -- -- 79
2021-01-21 07:00:00 9.6 4 Sudoeste 18 Sudoeste 0 -- -- 87
2021-01-21 06:00:00 10.1 4 Sudoeste 27 Sudoeste 0 -- -- 89
2021-01-21 05:00:00 10.3 10 Sudoeste 31 Sudoeste 0.2 -- -- 88
2021-01-21 04:00:00 10 6 Sudoeste 14 Sudoeste 0 -- -- 91
2021-01-21 03:00:00 10 4 Sudoeste 19 Sudoeste 0 -- -- 94
2021-01-21 02:00:00 10 5 Sudoeste 23 Sudoeste 0 -- -- 94
2021-01-21 01:00:00 10.4 9 Sudoeste 21 Sudoeste 0 -- -- 92
2021-01-21 00:00:00 10.4 8 Sudoeste 18 Sudoeste 0 -- -- 93
2021-01-20 23:00:00 10.4 5 Sudoeste 22 Sudoeste 0 -- -- 94
2021-01-20 22:00:00 10.4 7 Sudoeste 26 Sudoeste 0.2 -- -- 94
2021-01-20 21:00:00 10.6 5 Sudoeste 19 Sudoeste 0.2 -- -- 92
2021-01-20 20:00:00 10.4 8 Sudoeste 14 Sudoeste 1.6 -- -- 93
2021-01-20 19:00:00 10.4 2 Sudoeste 21 Sudoeste 0.2 -- -- 92
2021-01-20 18:00:00 11.1 8 Sudoeste 19 Sudoeste 0.2 -- -- 90
2021-01-20 17:00:00 11.1 7 Sur 25 Sur 0.6 -- -- 90
2021-01-20 16:00:00 11.7 14 Sudoeste 30 Sudoeste 1.2 -- -- 89
2021-01-20 15:00:00 11.5 11 Sudoeste 28 Sudoeste 0.6 -- -- 90
2021-01-20 14:00:00 11.1 11 Sudoeste 32 Oeste 1 -- -- 88
2021-01-20 13:00:00 11 8 Sur 25 Sudoeste 0.6 -- -- 85
2021-01-20 12:00:00 10.9 11 Sur 28 Sur 0.2 -- -- 83
2021-01-20 11:00:00 10 10 Sur 25 Sudoeste 1.4 -- -- 84
2021-01-20 10:00:00 10.4 5 Sur 41 Sudoeste 0.6 -- -- 80
2021-01-20 09:00:00 11.1 12 Sur 29 Sur 0 -- -- 78
2021-01-20 08:00:00 9.6 3 Sur 13 Sudeste 0 -- -- 72
2021-01-20 07:00:00 10.3 3 Sudeste 45 Sudeste 0 -- -- 66
2021-01-20 06:00:00 10.6 8 Sudeste 24 Sudeste 0 -- -- 67
2021-01-20 05:00:00 10.2 8 Sudeste 30 Sudeste 0 -- -- 67
2021-01-20 04:00:00 10.4 10 Sur 33 Sur 0 -- -- 68
2021-01-20 03:00:00 10.8 11 Sudeste 30 Sudeste 0 -- -- 66
2021-01-20 02:00:00 11.2 9 Sudeste 31 Sudeste 0 -- -- 63
2021-01-20 01:00:00 11.3 14 Sur 30 Sur 0 -- -- 60
2021-01-20 00:00:00 10.1 8 Sur 25 Sur 0 -- -- 66
2021-01-19 23:00:00 9.5 5 Sudeste 12 Sudeste 0 -- -- 67
2021-01-19 22:00:00 9.9 4 Sudeste 27 Sur 0 -- -- 65
2021-01-19 21:00:00 8.7 4 Sur 20 Sur 0 -- -- 67
2021-01-19 20:00:00 8.1 5 Sur 17 Sudoeste 0 -- -- 66
2021-01-19 19:00:00 8.8 0 Calma 14 Sudoeste 0 -- -- 66
2021-01-19 18:00:00 11.2 3 Sur 31 Sur 0 -- -- 57
2021-01-19 17:00:00 11.1 3 Sudoeste 22 Sur 0 -- -- 64
2021-01-19 16:00:00 11.7 8 Sur 23 Sur 0 -- -- 56
2021-01-19 15:00:00 10.5 9 Sur 17 Sur 0 -- -- 62
2021-01-19 14:00:00 5.4 0 Calma 5 Sur 0 -- -- 95
2021-01-19 13:00:00 2.4 0 Calma 7 Sur 0 -- -- 96
2021-01-19 12:00:00 0.4 0 Calma 5 Sur 0 -- -- 98
2021-01-19 11:00:00 -1.2 0 Calma 5 Sur 0 -- -- 98
2021-01-19 10:00:00 -2.3 0 Calma 4 Sur 0 -- -- 98
2021-01-19 09:00:00 -2.6 0 Calma 4 Sur 0 -- -- 97
2021-01-19 08:00:00 -2.2 0 Calma 4 Sur 0 -- -- 97
2021-01-19 07:00:00 -1.6 2 Sur 5 Sur 0 -- -- 97
2021-01-19 06:00:00 -1.2 0 Calma 5 Sur 0 -- -- 97
2021-01-19 05:00:00 -0.8 0 Calma 4 Sur 0 -- -- 97
2021-01-19 04:00:00 -0.3 0 Calma 4 Sur 0 -- -- 97
2021-01-19 03:00:00 -0.2 0 Calma 2 Sur -- -- -- 97
2021-01-19 02:00:00 -0.4 0 Calma 3 Sur 0 -- -- 96
2021-01-19 01:00:00 -0.6 0 Calma 2 Sur 0 -- -- 95
2021-01-19 00:00:00 -0.7 0 Calma 2 Sur 0 -- -- 93
2021-01-18 23:00:00 -0.5 0 Calma 2 Sur 0 -- -- 91
2021-01-18 22:00:00 0.3 0 Calma 2 Sur 0 -- -- 87
2021-01-18 21:00:00 1.6 0 Calma 3 Sur 0 -- -- 85
2021-01-18 20:00:00 3.4 0 Calma 2 Sur 0 -- -- 81
2021-01-18 19:00:00 6.1 0 Calma 3 Sur 0 -- -- 77
2021-01-18 18:00:00 9.1 0 Calma 4 Sur 0 -- -- 75
2021-01-18 17:00:00 11.5 0 Calma 5 Sur 0 -- -- 65
2021-01-18 16:00:00 10.4 0 Calma 8 Sur 0 -- -- 72
2021-01-18 15:00:00 7.9 3 Sur 6 Sur 0 -- -- 81
2021-01-18 14:00:00 4.7 0 Calma 5 Sur 0 -- -- 90
2021-01-18 13:00:00 4 3 Sur 5 Sur 0 -- -- 93
2021-01-18 12:00:00 3.2 0 Calma 5 Sur 0 -- -- 95
2021-01-18 11:00:00 2.5 0 Calma 4 Sur 0 -- -- 97
2021-01-18 10:00:00 1.5 0 Calma 5 Sur 0 -- -- 97
2021-01-18 09:00:00 1 0 Calma 3 Sur 0 -- -- 97
2021-01-18 08:00:00 0.6 0 Calma 2 Sur 0 -- -- 96
2021-01-18 07:00:00 0.2 0 Calma 3 Sur 0 -- -- 95
2021-01-18 06:00:00 0.2 0 Calma 4 Sur 0 -- -- 95
2021-01-18 05:00:00 -0.1 0 Calma 3 Sur 0 -- -- 96
2021-01-18 04:00:00 -0.7 0 Calma 3 Sur 0 -- -- 95
2021-01-18 03:00:00 -1.2 0 Calma 3 Sur 0 -- -- 95
2021-01-18 02:00:00 -1.4 2 Sur 4 Sur 0 -- -- 92
2021-01-18 01:00:00 -0.9 0 Calma 3 Sur 0 -- -- 90
2021-01-18 00:00:00 -0.2 0 Calma 4 Sur 0 -- -- 90
2021-01-17 23:00:00 0.3 0 Calma 3 Sur 0 -- -- 89
2021-01-17 22:00:00 1.2 0 Calma 3 Sur 0 -- -- 86
2021-01-17 21:00:00 2.5 0 Calma 3 Sur 0 -- -- 83
2021-01-17 20:00:00 4.4 0 Calma 3 Sur 0 -- -- 79
2021-01-17 19:00:00 7.3 0 Calma 3 Sur 0 -- -- 74
2021-01-17 18:00:00 10.5 0 Calma 4 Sur 0 -- -- 70
2021-01-17 17:00:00 12.9 0 Calma 6 Sur 0 -- -- 61
2021-01-17 16:00:00 12.2 2 Sur 7 Sur 0 -- -- 63
2021-01-17 15:00:00 10.8 2 Sur 8 Sur 0 -- -- 63
2021-01-17 14:00:00 8.1 3 Sur 8 Sur 0 -- -- 64
2021-01-17 13:00:00 4.9 2 Sur 5 Sur 0 -- -- 76
2021-01-17 12:00:00 0.1 0 Calma 4 Sur 0 -- -- 95
2021-01-17 11:00:00 -2.5 0 Calma 3 Sur 0 -- -- 97
2021-01-17 10:00:00 -3.1 0 Calma 3 Sur 0 -- -- 97
2021-01-17 09:00:00 -3.1 0 Calma 4 Sur 0 -- -- 96
2021-01-17 08:00:00 -3.3 0 Calma 2 Sur 0 -- -- 97
2021-01-17 07:00:00 -3.4 0 Calma 2 Sur 0 -- -- 96
2021-01-17 06:00:00 -3.7 0 Calma 2 Sur 0 -- -- 94
2021-01-17 05:00:00 -3.6 0 Calma 3 Sur 0 -- -- 93
2021-01-17 04:00:00 -3.3 0 Calma 2 Sur 0 -- -- 93
2021-01-17 03:00:00 -3.1 0 Calma 4 Sur 0 -- -- 93
2021-01-17 02:00:00 -2.8 0 Calma 3 Sur 0 -- -- 91
2021-01-17 01:00:00 -2.2 0 Calma 4 Sur 0 -- -- 93
2021-01-17 00:00:00 -2.1 0 Calma 2 Sur 0 -- -- 91
2021-01-16 23:00:00 -1.6 0 Calma 4 Sur 0 -- -- 91
2021-01-16 22:00:00 -1.1 0 Calma 4 Sur 0 -- -- 88
2021-01-16 21:00:00 -0.1 0 Calma 2 Sur 0 -- -- 85
2021-01-16 20:00:00 1.6 0 Calma 3 Sur 0 -- -- 81
2021-01-16 19:00:00 4.3 0 Calma 2 Sur 0 -- -- 76
2021-01-16 18:00:00 7.6 0 Calma 5 Sur 0 -- -- 71
2021-01-16 17:00:00 10.2 0 Calma 7 Sur 0 -- -- 63
2021-01-16 16:00:00 8.9 3 Sur 6 Sur 0 -- -- 65
2021-01-16 15:00:00 7.9 0 Calma 9 Sur 0 -- -- 72
2021-01-16 14:00:00 4.9 3 Sur 6 Sur 0 -- -- 82
2021-01-16 13:00:00 2 2 Sur 6 Sur 0 -- -- 90
2021-01-16 12:00:00 1.4 0 Calma 4 Sur 0 -- -- 93
2021-01-16 11:00:00 0.9 0 Calma 5 Sur 0 -- -- 95
2021-01-16 10:00:00 0.6 0 Calma 6 Sur 0 -- -- 94
2021-01-16 09:00:00 0.9 0 Calma 5 Sur 0 -- -- 95
2021-01-16 08:00:00 1.3 3 Sur 5 Sur 0 -- -- 95
2021-01-16 07:00:00 1.5 0 Calma 5 Sur 0 -- -- 94
2021-01-16 06:00:00 1.8 3 Sur 6 Sur 0 -- -- 94
2021-01-16 05:00:00 2.1 0 Calma 5 Sur 0 -- -- 95
2021-01-16 04:00:00 2.1 0 Calma 5 Sur 0 -- -- 95
2021-01-16 03:00:00 2.5 0 Calma 6 Sur 0 -- -- 94
2021-01-16 02:00:00 2.6 0 Calma 5 Sur 0 -- -- 94
2021-01-16 01:00:00 2.8 3 Sur 5 Sur 0 -- -- 94
2021-01-16 00:00:00 3 0 Calma 5 Sur 0 -- -- 94
2021-01-15 23:00:00 3.3 0 Calma 5 Sur 0 -- -- 94
2021-01-15 22:00:00 3.6 2 Sur 6 Sur 0 -- -- 93
2021-01-15 21:00:00 3.8 0 Calma 5 Sur 0 -- -- 93
2021-01-15 20:00:00 4 0 Calma 4 Sur 0 -- -- 92
2021-01-15 19:00:00 4.2 0 Calma 8 Sur 0 -- -- 92
2021-01-15 18:00:00 4.5 3 Sur 6 Sur 0 -- -- 91
2021-01-15 17:00:00 4.8 3 Sur 6 Sur 0 -- -- 90
2021-01-15 16:00:00 4.7 2 Sur 7 Sur 0 -- -- 91
2021-01-15 15:00:00 4.8 2 Sur 8 Sur 0 -- -- 89
2021-01-15 14:00:00 4.7 2 Sur 5 Sur 0 -- -- 91
2021-01-15 13:00:00 4.6 3 Sur 6 Sur 0 -- -- 91
2021-01-15 12:00:00 4.4 3 Sur 8 Sur 0 -- -- 92
2021-01-15 11:00:00 4 4 Sur 9 Sur 0 -- -- 94
2021-01-15 10:00:00 3.7 4 Sur 14 Sur 0 -- -- 96
2021-01-15 09:00:00 3.9 2 Sudoeste 4 Sudoeste 0 -- -- 96
2021-01-15 08:00:00 4.1 0 Calma 4 Sudoeste 0 -- -- 95
2021-01-15 07:00:00 4.3 0 Calma 4 Sudoeste 0 -- -- 95
2021-01-15 06:00:00 4.4 2 Sudoeste 4 Sudoeste 0 -- -- 96
2021-01-15 05:00:00 4.5 2 Sudoeste 4 Sudoeste 0 -- -- 96
2021-01-15 04:00:00 4.6 0 Calma 4 Sudoeste 0.2 -- -- 95
2021-01-15 03:00:00 4.7 0 Calma 3 Sudoeste 0 -- -- 94
2021-01-15 02:00:00 4.8 0 Calma 0 Calma 0 -- -- 93
2021-01-15 01:00:00 4.8 0 Calma 2 Sudoeste 0 -- -- 93
2021-01-15 00:00:00 4.8 0 Calma 3 Sudoeste 0 -- -- 91
2021-01-14 23:00:00 4.8 0 Calma 3 Sudoeste 0 -- -- 90
2021-01-14 22:00:00 4.8 0 Calma 3 Sudoeste 0 -- -- 90
2021-01-14 21:00:00 4.9 0 Calma 4 Sudoeste 0 -- -- 90
2021-01-14 20:00:00 5.1 0 Calma 2 Sudoeste 0 -- -- 86
2021-01-14 19:00:00 5.6 0 Calma 2 Sudoeste 0 -- -- 85
2021-01-14 18:00:00 6 0 Calma 3 Sudoeste 0 -- -- 82
2021-01-14 17:00:00 6.1 0 Calma 3 Sudoeste 0 -- -- 81
2021-01-14 16:00:00 5.8 0 Calma 4 Sudoeste 0 -- -- 81
2021-01-14 15:00:00 5.3 0 Calma 6 Sudoeste 0 -- -- 80
2021-01-14 14:00:00 4.7 2 Sudoeste 5 Sudoeste 0 -- -- 82
2021-01-14 13:00:00 2.8 0 Calma 5 Sudoeste 0 -- -- 91
2021-01-14 12:00:00 1 0 Calma 3 Sudoeste 0 -- -- 93
2021-01-14 11:00:00 -0.3 0 Calma 2 Sudoeste 0 -- -- 95
2021-01-14 10:00:00 -1.1 0 Calma 2 Sudoeste 0 -- -- 94
2021-01-14 09:00:00 -1.7 0 Calma 3 Sudoeste 0 -- -- 93
2021-01-14 08:00:00 -2.2 0 Calma 2 Sudoeste 0 -- -- 93
2021-01-14 07:00:00 -2.6 0 Calma 4 Sudoeste 0 -- -- 93
2021-01-14 06:00:00 -3.3 0 Calma 2 Sudoeste 0 -- -- 94
2021-01-14 05:00:00 -4.4 0 Calma 4 Sudoeste 0 -- -- 95
2021-01-14 04:00:00 -5.8 0 Calma 2 Sudoeste 0 -- -- 88
2021-01-14 03:00:00 -5.1 0 Calma 2 Sudoeste 0 -- -- 89
2021-01-14 02:00:00 -4.6 0 Calma 0 Calma 0 -- -- 88
2021-01-14 01:00:00 -4 0 Calma 2 Sudoeste 0 -- -- 88
2021-01-14 00:00:00 -3.5 0 Calma 3 Sudoeste 0 -- -- 87
2021-01-13 23:00:00 -2.9 0 Calma 2 Sudoeste 0 -- -- 85
2021-01-13 22:00:00 -2.2 0 Calma 2 Sudoeste 0 -- -- 84
2021-01-13 21:00:00 -1.1 0 Calma 3 Sudoeste 0 -- -- 82
2021-01-13 20:00:00 0.6 0 Calma 2 Sudoeste 0 -- -- 77
2021-01-13 19:00:00 3.5 0 Calma 0 Calma 0 -- -- 69
2021-01-13 18:00:00 7.5 0 Calma 5 Sudoeste 0 -- -- 61
2021-01-13 17:00:00 10.8 2 Sudoeste 6 Sudoeste 0 -- -- 50
2021-01-13 16:00:00 10.5 3 Sudoeste 6 Sudoeste 0 -- -- 52
2021-01-13 15:00:00 8.6 2 Sudoeste 5 Sudoeste 0 -- -- 56
2021-01-13 14:00:00 6 0 Calma 5 Sudoeste 0 -- -- 68
2021-01-13 13:00:00 1.7 0 Calma 4 Sudoeste 0 -- -- 88
2021-01-13 12:00:00 -3 0 Calma 3 Sudoeste 0 -- -- 96
2021-01-13 11:00:00 -4.1 0 Calma 3 Sudoeste 0 -- -- 97
2021-01-13 10:00:00 -5.1 0 Calma 0 Calma 0 -- -- 96
2021-01-13 09:00:00 -6.4 0 Calma 2 Sudoeste 0 -- -- 94
2021-01-13 08:00:00 -7.1 0 Calma 2 Sudoeste 0 -- -- 89
2021-01-13 07:00:00 -6.8 0 Calma 0 Calma 0 -- -- 89
2021-01-13 06:00:00 -6.6 0 Calma 0 Calma 0 -- -- 88
2021-01-13 05:00:00 -6 0 Calma 2 Sudoeste 0 -- -- 88
2021-01-13 04:00:00 -5.6 0 Calma 2 Sudoeste 0 -- -- 90
2021-01-13 03:00:00 -5.1 0 Calma 2 Sudoeste 0 -- -- 88
2021-01-13 02:00:00 -4.7 0 Calma 0 Calma 0 -- -- 87
2021-01-13 01:00:00 -4 0 Calma 2 Sudoeste 0 -- -- 87
2021-01-13 00:00:00 -3.4 0 Calma 2 Sudoeste 0 -- -- 86
2021-01-12 23:00:00 -2.8 0 Calma 2 Sudoeste 0 -- -- 85
2021-01-12 22:00:00 -1.8 0 Calma 2 Sudoeste 0 -- -- 84
2021-01-12 21:00:00 -0.8 0 Calma 2 Sudoeste 0 -- -- 80
2021-01-12 20:00:00 1 0 Calma 2 Sudoeste 0 -- -- 75
2021-01-12 19:00:00 3.8 0 Calma 3 Sudoeste 0 -- -- 66
2021-01-12 18:00:00 7.9 0 Calma 5 Sudoeste 0 -- -- 56
2021-01-12 17:00:00 11.5 0 Calma 4 Sudoeste 0 -- -- 45
2021-01-12 16:00:00 10.6 0 Calma 6 Sudoeste 0 -- -- 45
2021-01-12 15:00:00 9.5 0 Calma 5 Sudoeste 0 -- -- 54
2021-01-12 14:00:00 6.8 3 Sudoeste 5 Sudoeste 0 -- -- 60
2021-01-12 13:00:00 4.2 2 Sudoeste 6 Sudoeste 0 -- -- 69
2021-01-12 12:00:00 1.3 0 Calma 4 Sudoeste 0 -- -- 80
2021-01-12 11:00:00 -2.3 0 Calma 3 Sudoeste 0 -- -- 90
2021-01-12 10:00:00 -6.2 0 Calma 2 Sudoeste 0 -- -- 93
2021-01-12 09:00:00 -6.7 0 Calma 2 Sudoeste 0 -- -- 91
2021-01-12 08:00:00 -6.7 0 Calma 2 Sudoeste 0 -- -- 88
2021-01-12 07:00:00 -6.2 0 Calma 2 Sudoeste 0 -- -- 89
2021-01-12 06:00:00 -5.7 0 Calma 3 Sudoeste 0 -- -- 89
2021-01-12 05:00:00 -5.4 0 Calma 3 Sudoeste 0 -- -- 89
2021-01-12 04:00:00 -4.8 0 Calma 3 Sudoeste 0 -- -- 90
2021-01-12 03:00:00 -4.3 0 Calma 2 Sudoeste 0 -- -- 89
2021-01-12 02:00:00 -3.9 0 Calma 2 Sudoeste 0 -- -- 88
2021-01-12 01:00:00 -3.3 0 Calma 3 Sudoeste 0 -- -- 87
2021-01-12 00:00:00 -2.8 0 Calma 2 Sudoeste 0 -- -- 86
2021-01-11 23:00:00 -2.1 0 Calma 3 Sudoeste 0 -- -- 85
2021-01-11 22:00:00 -1.1 0 Calma 3 Sudoeste 0 -- -- 84
2021-01-11 21:00:00 0.2 0 Calma 3 Sur 0 -- -- 80
2021-01-11 20:00:00 2 0 Calma 3 Sur 0 -- -- 76
2021-01-11 19:00:00 4.7 0 Calma 3 Sudoeste 0 -- -- 67
2021-01-11 18:00:00 8.6 0 Calma 5 Sudoeste 0 -- -- 58
2021-01-11 17:00:00 11.9 0 Calma 6 Sur 0 -- -- 48
2021-01-11 16:00:00 12.2 2 Sudoeste 9 Sur 0 -- -- 47
2021-01-11 15:00:00 10.5 0 Calma 8 Sudoeste 0 -- -- 48
2021-01-11 14:00:00 8.4 2 Sudoeste 6 Sudoeste 0 -- -- 55
2021-01-11 13:00:00 5.8 0 Calma 6 Sudoeste 0 -- -- 62
2021-01-11 12:00:00 3 2 Oeste 5 Oeste 0 -- -- 69
2021-01-11 11:00:00 -0.7 0 Calma 3 Noroeste 0 -- -- 87
2021-01-11 10:00:00 -4.6 0 Calma 2 Noroeste 0 -- -- 93
2021-01-11 09:00:00 -5.2 0 Calma -- -- 0 -- -- 89
2021-01-11 08:00:00 -4.7 0 Calma 2 Noroeste 0 -- -- 89
2021-01-11 07:00:00 -4.5 0 Calma 2 Noroeste 0 -- -- 89
2021-01-11 06:00:00 -4.1 0 Calma 3 Noroeste 0 -- -- 89
2021-01-11 05:00:00 -3.8 0 Calma 4 Noroeste 0 -- -- 87
2021-01-11 04:00:00 -3.2 0 Calma 4 Noroeste 0 -- -- 88
2021-01-11 03:00:00 -2.8 0 Calma 3 Noroeste 0 -- -- 84
2021-01-11 02:00:00 -- -- -- -- -- -- -- -- --
2021-01-11 01:00:00 -- -- -- -- -- -- -- -- --
2021-01-11 00:00:00 -- -- -- -- -- -- -- -- --
2021-01-10 23:00:00 -- -- -- -- -- -- -- -- --
2021-01-10 22:00:00 3.3 4 Nordeste 18 Nordeste 0 -- -- 65
2021-01-10 21:00:00 3.8 7 Norte 21 Norte 0 -- -- 63
2021-01-10 20:00:00 4.3 5 Nordeste 21 Nordeste 0 -- -- 61
2021-01-10 19:00:00 5.4 10 Norte 27 Nordeste 0 -- -- 58
2021-01-10 18:00:00 6.8 10 Norte 35 Norte 0 -- -- 52
2021-01-10 17:00:00 8.4 19 Norte 44 Nordeste 0 -- -- 48
2021-01-10 16:00:00 9.4 20 Norte 45 Norte 0 -- -- 45
2021-01-10 15:00:00 9.3 21 Norte 44 Nordeste 0 -- -- 48
2021-01-10 14:00:00 9.6 17 Norte 40 Norte 0 -- -- 49
2021-01-10 13:00:00 9.6 15 Norte 35 Norte 0 -- -- 51
2021-01-10 12:00:00 8.2 23 Norte 40 Norte 0 -- -- 53
2021-01-10 11:00:00 7.3 14 Norte 32 Norte 0 -- -- 63
2021-01-10 10:00:00 4.7 13 Norte 29 Norte 0 -- -- 69
2021-01-10 09:00:00 3.9 11 Norte 27 Norte 0 -- -- 73
2021-01-10 08:00:00 3.7 9 Norte 19 Nordeste 0 -- -- 76
2021-01-10 07:00:00 3.9 9 Norte 24 Norte 0 -- -- 75
2021-01-10 06:00:00 4.2 8 Norte 25 Norte 0 -- -- 76
2021-01-10 05:00:00 4.5 5 Nordeste 31 Norte 0 -- -- 73
2021-01-10 04:00:00 4.9 14 Norte 23 Nordeste 0 -- -- 71
2021-01-10 03:00:00 4.8 7 Norte 27 Norte 0 -- -- 71
2021-01-10 02:00:00 4.8 10 Norte 28 Norte 0 -- -- 70
2021-01-10 01:00:00 4.7 11 Norte 30 Norte 0 -- -- 71
2021-01-10 00:00:00 4.4 11 Norte 32 Norte 0 -- -- 72
2021-01-09 23:00:00 4.2 13 Norte 31 Norte 0 -- -- 72
2021-01-09 22:00:00 4.2 12 Nordeste 32 Norte 0 -- -- 72
2021-01-09 21:00:00 3.8 9 Norte 25 Norte 0 -- -- 74
2021-01-09 20:00:00 3.9 10 Nordeste 23 Nordeste 0 -- -- 74
2021-01-09 19:00:00 4 6 Nordeste 25 Este 0 -- -- 73
2021-01-09 18:00:00 4.8 9 Norte 31 Norte 0 -- -- 66
2021-01-09 17:00:00 5.5 13 Nordeste 34 Nordeste 0 -- -- 64
2021-01-09 16:00:00 5.6 17 Nordeste 42 Norte 0 -- -- 62
2021-01-09 15:00:00 5.8 16 Norte 41 Norte 0 -- -- 65
2021-01-09 14:00:00 4.9 13 Nordeste 30 Norte 0 -- -- 68
2021-01-09 13:00:00 1.2 3 Sudoeste 10 Oeste 0 -- -- 81
2021-01-09 12:00:00 -0.6 0 Calma 4 Noroeste 0 -- -- 78
2021-01-09 11:00:00 -3.5 0 Calma 4 Oeste 0 -- -- 89
2021-01-09 10:00:00 -7 0 Calma 3 Noroeste 0 -- -- 92
2021-01-09 09:00:00 -7.4 0 Calma 2 Norte 0 -- -- 90
2021-01-09 08:00:00 -7 0 Calma 2 Norte 0 -- -- 91
2021-01-09 07:00:00 -6.7 0 Calma 3 Norte 0 -- -- 89
2021-01-09 06:00:00 -6.1 0 Calma 5 Norte 0 -- -- 90
2021-01-09 05:00:00 -5.5 0 Calma 2 Este 0 -- -- 89
2021-01-09 04:00:00 -4.9 0 Calma 3 Este 0 -- -- 88
2021-01-09 03:00:00 -4.1 0 Calma 2 Este 0 -- -- 89
2021-01-09 02:00:00 -3.3 0 Calma 3 Este 0 -- -- 87
2021-01-09 01:00:00 -2.4 0 Calma 3 Este 0 -- -- 87
2021-01-09 00:00:00 -1.2 0 Calma 5 Este 0 -- -- 83
2021-01-08 23:00:00 0.2 0 Calma 8 Nordeste 0 -- -- 80
2021-01-08 22:00:00 0.8 2 Nordeste 10 Norte 0 -- -- 77
2021-01-08 21:00:00 1.7 5 Norte 15 Norte 0 -- -- 72
2021-01-08 20:00:00 2.2 0 Calma 12 Nordeste 0 -- -- 70
2021-01-08 19:00:00 3.7 3 Nordeste 18 Norte 0 -- -- 65
2021-01-08 18:00:00 5.6 6 Norte 25 Norte 0 -- -- 59
2021-01-08 17:00:00 7.9 9 Norte 25 Norte 0 -- -- 48
2021-01-08 16:00:00 8.7 10 Norte 21 Norte 0 -- -- 49
2021-01-08 15:00:00 7.7 3 Sudeste 8 Este 0 -- -- 57
2021-01-08 14:00:00 5.8 2 Este 12 Norte 0 -- -- 65
2021-01-08 13:00:00 3.5 3 Este 8 Este 0 -- -- 73
2021-01-08 12:00:00 0.1 0 Calma 5 Nordeste 0 -- -- 84
2021-01-08 11:00:00 -0.5 2 Norte 6 Nordeste 0 -- -- 88
2021-01-08 10:00:00 -1.2 0 Calma 8 Norte 0 -- -- 90
2021-01-08 09:00:00 -1.1 3 Norte 8 Norte 0 -- -- 90
2021-01-08 08:00:00 -0.9 0 Calma 4 Este 0 -- -- 91
2021-01-08 07:00:00 -0.7 3 Este 6 Este 0 -- -- 91
2021-01-08 06:00:00 -0.6 2 Este 8 Norte 0 -- -- 91
2021-01-08 05:00:00 -0.4 3 Norte 7 Nordeste 0 -- -- 91
2021-01-08 04:00:00 -0.1 3 Norte 8 Nordeste 0 -- -- 92
2021-01-08 03:00:00 0.1 3 Nordeste 8 Nordeste 0 -- -- 92
2021-01-08 02:00:00 0.4 3 Norte 6 Norte 0 -- -- 93
2021-01-08 01:00:00 0.4 3 Norte 7 Norte 0 -- -- 92
2021-01-08 00:00:00 0.6 3 Nordeste 10 Norte 0 -- -- 91
2021-01-07 23:00:00 1.1 0 Calma 3 Nordeste 0 -- -- 91
2021-01-07 22:00:00 0.9 0 Calma 4 Norte 0 -- -- 91
2021-01-07 21:00:00 1 0 Calma 2 Norte 0 -- -- 90
2021-01-07 20:00:00 1.3 0 Calma 5 Nordeste 0 -- -- 88
2021-01-07 19:00:00 1.8 3 Norte 10 Norte 0 -- -- 86
2021-01-07 18:00:00 3.4 3 Norte 8 Noroeste 0 -- -- 79
2021-01-07 17:00:00 5.7 3 Norte 9 Nordeste 0 -- -- 69
2021-01-07 16:00:00 7 2 Nordeste 8 Nordeste 0 -- -- 66
2021-01-07 15:00:00 6 2 Oeste 9 Noroeste 0 -- -- 69
2021-01-07 14:00:00 4.7 2 Sudoeste 10 Sudoeste 0 -- -- 74
2021-01-07 13:00:00 2.9 3 Sur 8 Sudoeste 0 -- -- 79
2021-01-07 12:00:00 0.3 0 Calma 6 Nordeste 0 -- -- 84
2021-01-07 11:00:00 -0.1 3 Este 7 Nordeste 0 -- -- 88
2021-01-07 10:00:00 -0.5 0 Calma 6 Este 0 -- -- 89
2021-01-07 09:00:00 -0.3 0 Calma 5 Este 0 -- -- 90
2021-01-07 08:00:00 -0.1 0 Calma 6 Este 0 -- -- 89
2021-01-07 07:00:00 0.3 0 Calma 5 Este 0 -- -- 90
2021-01-07 06:00:00 0.6 0 Calma 5 Este 0 -- -- 91
2021-01-07 05:00:00 0.7 2 Este 5 Este 0 -- -- 90
2021-01-07 04:00:00 1 0 Calma 5 Este 0 -- -- 91
2021-01-07 03:00:00 1.2 0 Calma 5 Sudoeste 0 -- -- 91
2021-01-07 02:00:00 1.3 0 Calma 3 Oeste 0 -- -- 93
2021-01-07 01:00:00 1.3 0 Calma 2 Oeste 0 -- -- 93
2021-01-07 00:00:00 1.3 0 Calma 2 Oeste 0 -- -- 94
2021-01-06 23:00:00 1.2 0 Calma 2 Oeste 0 -- -- 94
2021-01-06 22:00:00 1.1 0 Calma 2 Oeste 0 -- -- 93
2021-01-06 21:00:00 0.9 0 Calma 3 Oeste 0 -- -- 93
2021-01-06 20:00:00 0.8 0 Calma 3 Oeste 0 -- -- 92
2021-01-06 19:00:00 1 0 Calma 7 Sudoeste 0 -- -- 86
2021-01-06 18:00:00 2.3 2 Sudoeste 10 Sudoeste 0 -- -- 83
2021-01-06 17:00:00 3.9 0 Calma 10 Norte 0 -- -- 79
2021-01-06 16:00:00 3.4 0 Calma 7 Norte 0 -- -- 79
2021-01-06 15:00:00 3 0 Calma 8 Norte 0 -- -- 81
2021-01-06 14:00:00 2.3 0 Calma 8 Nordeste 0 -- -- 85
2021-01-06 13:00:00 1.7 4 Norte 9 Norte 0 -- -- 87
2021-01-06 12:00:00 1.4 0 Calma 8 Norte 0 -- -- 89
2021-01-06 11:00:00 1.1 2 Nordeste 9 Norte 0 -- -- 91
2021-01-06 10:00:00 1 0 Calma 0 Calma 0 -- -- 92
2021-01-06 09:00:00 1 0 Calma 0 Calma 0 -- -- 93
2021-01-06 08:00:00 1.1 0 Calma -- -- 0 -- -- 94
2021-01-06 07:00:00 1.1 0 Calma -- -- 0 -- -- 95
2021-01-06 06:00:00 1.2 0 Calma 0 Calma 0 -- -- 95
2021-01-06 05:00:00 1.3 0 Calma -- -- 0 -- -- 95
2021-01-06 04:00:00 1.4 0 Calma -- -- 0 -- -- 94
2021-01-06 03:00:00 1.5 0 Calma 3 Noroeste 0 -- -- 95
2021-01-06 02:00:00 1.5 0 Calma 4 Noroeste 0 -- -- 96
2021-01-06 01:00:00 1.4 3 Noroeste 7 Noroeste 0 -- -- 96
2021-01-06 00:00:00 1.5 0 Calma 3 Oeste 0 -- -- 97
2021-01-05 23:00:00 1.2 0 Calma 2 Oeste 0 -- -- 97
2021-01-05 22:00:00 0.9 0 Calma 3 Sur 0 -- -- 96
2021-01-05 21:00:00 0.7 0 Calma 3 Sur 0 -- -- 95
2021-01-05 20:00:00 1.2 0 Calma 2 Oeste 0 -- -- 93
2021-01-05 19:00:00 1.9 0 Calma 4 Sudoeste 0 -- -- 92
2021-01-05 18:00:00 2.3 0 Calma 3 Oeste 0 -- -- 91
2021-01-05 17:00:00 2.3 0 Calma 3 Sudoeste 0 -- -- 91
2021-01-05 16:00:00 2.3 2 Sudoeste 5 Sudoeste 0 -- -- 91
2021-01-05 15:00:00 1.9 0 Calma 7 Sudeste 0 -- -- 92
2021-01-05 14:00:00 1.1 0 Calma 6 Oeste 0 -- -- 93
2021-01-05 13:00:00 0.5 0 Calma 4 Noroeste 0 -- -- 96
2021-01-05 12:00:00 0.1 0 Calma 4 Noroeste 0 -- -- 98
2021-01-05 11:00:00 -0.2 0 Calma 4 Noroeste 0 -- -- 97
2021-01-05 10:00:00 -0.5 0 Calma 5 Noroeste 0 -- -- 97
2021-01-05 09:00:00 -0.5 0 Calma 5 Noroeste 0 -- -- 98
2021-01-05 08:00:00 -0.4 0 Calma 5 Noroeste 0 -- -- 98
2021-01-05 07:00:00 -0.4 0 Calma 4 Noroeste 0 -- -- 98
2021-01-05 06:00:00 -0.5 0 Calma 3 Noroeste 0 -- -- 98
2021-01-05 05:00:00 -0.8 0 Calma 3 Noroeste 0 -- -- 98
2021-01-05 04:00:00 -1.3 0 Calma 4 Noroeste 0 -- -- 98
2021-01-05 03:00:00 -1.8 0 Calma 3 Noroeste 0 -- -- 98
2021-01-05 02:00:00 -2.6 0 Calma 3 Noroeste 0 -- -- 95
2021-01-05 01:00:00 -2.5 0 Calma -- -- 0 -- -- 94
2021-01-05 00:00:00 -2.2 0 Calma -- -- 0 -- -- 94
2021-01-04 23:00:00 -1.7 0 Calma 0 Calma 0 -- -- 94
2021-01-04 22:00:00 -1.1 0 Calma 3 Oeste 0 -- -- 94
2021-01-04 21:00:00 -0.4 0 Calma 4 Oeste 0 -- -- 92
2021-01-04 20:00:00 0.9 0 Calma 4 Norte 0 -- -- 89
2021-01-04 19:00:00 2.7 0 Calma 3 Noroeste 0 -- -- 85
2021-01-04 18:00:00 5.1 0 Calma 8 Noroeste 0 -- -- 82
2021-01-04 17:00:00 7 0 Calma 5 Norte 0 -- -- 75
2021-01-04 16:00:00 5.1 0 Calma 6 Norte 0 -- -- 86
2021-01-04 15:00:00 5.2 0 Calma 6 Noroeste 0 -- -- 86
2021-01-04 14:00:00 4.8 0 Calma 6 Noroeste 0 -- -- 86
2021-01-04 13:00:00 3.9 0 Calma 6 Noroeste 0 -- -- 96
2021-01-04 12:00:00 2.4 2 Noroeste 6 Noroeste 0 -- -- 99
2021-01-04 11:00:00 1.7 0 Calma 5 Noroeste 0 -- -- 100
2021-01-04 10:00:00 1.2 0 Calma 3 Noroeste 0 -- -- 99
2021-01-04 09:00:00 1.1 0 Calma 3 Noroeste 0 -- -- 99
2021-01-04 08:00:00 0.8 0 Calma 2 Noroeste 0 -- -- 98
2021-01-04 07:00:00 0.7 0 Calma 4 Noroeste 0 -- -- 98
2021-01-04 06:00:00 1.2 0 Calma 3 Noroeste 0 -- -- 98
2021-01-04 05:00:00 1.1 0 Calma 5 Norte 0 -- -- 98
2021-01-04 04:00:00 1.1 0 Calma 3 Noroeste 0.4 -- -- 99
2021-01-04 03:00:00 0.6 0 Calma 5 Norte 0 -- -- 98
2021-01-04 02:00:00 0.3 0 Calma 4 Norte 0 -- -- 98
2021-01-04 01:00:00 0.3 0 Calma 4 Norte 0 -- -- 96
2021-01-04 00:00:00 1.1 0 Calma 3 Norte 0 -- -- 96
2021-01-03 23:00:00 1.3 2 Norte 5 Norte 0 -- -- 95
2021-01-03 22:00:00 2 2 Norte 5 Norte 0 -- -- 93
2021-01-03 21:00:00 3.1 0 Calma 6 Noroeste 0 -- -- 95
2021-01-03 20:00:00 3.6 0 Calma 7 Noroeste 0 -- -- 91
2021-01-03 19:00:00 4.8 3 Noroeste 9 Norte 0 -- -- 92
2021-01-03 18:00:00 5.3 3 Noroeste 13 Noroeste 0.2 -- -- 91
2021-01-03 17:00:00 6 9 Noroeste 17 Noroeste 0.4 -- -- 89
2021-01-03 16:00:00 6.3 0 Calma 18 Sudoeste 0.6 -- -- 89
2021-01-03 15:00:00 6.9 9 Sudoeste 20 Sudoeste 0 -- -- 83
2021-01-03 14:00:00 7.6 4 Oeste 8 Oeste 0 -- -- 81
2021-01-03 13:00:00 7.1 2 Sudoeste 6 Sudoeste 0 -- -- 85
2021-01-03 12:00:00 3.5 0 Calma 4 Sudoeste 0 -- -- 97
2021-01-03 11:00:00 2.5 0 Calma 3 Oeste 0 -- -- 98
2021-01-03 10:00:00 1.9 0 Calma 2 Oeste 0 -- -- 98
2021-01-03 09:00:00 1.6 0 Calma 2 Sudoeste 0 -- -- 98
2021-01-03 08:00:00 1.5 2 Oeste 3 Oeste 0 -- -- 98
2021-01-03 07:00:00 1.5 0 Calma 3 Sudoeste 0.2 -- -- 98
2021-01-03 06:00:00 1.2 0 Calma 5 Sudoeste 0 -- -- 98
2021-01-03 05:00:00 1.1 2 Noroeste 6 Noroeste 0 -- -- 98
2021-01-03 04:00:00 1 0 Calma 3 Noroeste 0 -- -- 98
2021-01-03 03:00:00 0.7 0 Calma 4 Noroeste 0 -- -- 98
2021-01-03 02:00:00 0.5 0 Calma 2 Noroeste 0 -- -- 97
2021-01-03 01:00:00 0.5 0 Calma 2 Norte 0 -- -- 96
2021-01-03 00:00:00 1 0 Calma 5 Noroeste 0 -- -- 95
2021-01-02 23:00:00 1.5 0 Calma 4 Oeste 0 -- -- 96
2021-01-02 22:00:00 1.3 0 Calma 3 Oeste 0 -- -- 96
2021-01-02 21:00:00 1.3 0 Calma 2 Oeste 0 -- -- 93
2021-01-02 20:00:00 2.3 0 Calma 3 Sudoeste 0 -- -- 89
2021-01-02 19:00:00 3.9 0 Calma 4 Oeste 0 -- -- 86
2021-01-02 18:00:00 6.1 0 Calma 4 Sudoeste 0 -- -- 85
2021-01-02 17:00:00 6.5 2 Sudoeste 6 Oeste 0 -- -- 78
2021-01-02 16:00:00 6.3 3 Sudoeste 9 Sudoeste 0 -- -- 80
2021-01-02 15:00:00 6.8 2 Noroeste 7 Noroeste 0 -- -- 79
2021-01-02 14:00:00 6.2 0 Calma 9 Noroeste 0 -- -- 79